Location: Unspecified
(0.0000°N, 0.0000°E)
Time: 07:27:09
(UTC+00:00)

Tiros 1 despin weight - All Passes

Search period start: 28 May 2018 00:00
Search period end: 07 June 2018 00:00
Orbit: 594 x 643 km, 48.2° (Epoch: 27 May)

Date Brightness Start Highest point End Pass type
(mag) Time Alt. Az. Time Alt. Az. Time Alt. Az.
28 May - 02:33:01 10° SW 02:37:42 79° SE 02:42:23 10° NE visible
28 May - 14:41:41 10° NW 14:46:01 60° SW 14:50:22 10° SSE daylight
29 May - 01:09:55 10° S 01:12:59 17° SE 01:16:03 10° E night (unlit)
29 May - 02:50:06 10° WSW 02:54:26 37° NW 02:58:45 10° NNE visible
29 May - 13:17:44 10° N 13:21:23 25° NE 13:25:01 10° ESE daylight
29 May - 14:59:23 10° W 15:02:45 21° SW 15:06:09 10° S daylight
30 May - 01:25:17 10° SSW 01:29:45 44° SE 01:34:13 10° ENE night (unlit)
30 May - 03:08:38 10° W 03:11:12 15° NW 03:13:46 10° NNW visible
30 May - 13:33:43 10° NNW 13:38:06 73° NE 13:42:31 10° SE daylight
31 May - 01:41:49 10° SW 01:46:28 66° NW 01:51:07 10° NNE night (unlit)
31 May - 12:10:56 10° NNE 12:13:26 15° NE 12:15:54 10° E daylight
31 May - 13:50:45 10° WNW 13:54:50 37° SW 13:58:55 10° SSE daylight
01 Jun - 00:17:55 10° S 00:21:47 26° SE 00:25:40 10° ENE night (unlit)
01 Jun - 01:59:24 10° WSW 02:03:13 25° NW 02:07:01 10° N night (unlit)
01 Jun - 12:26:04 10° NNW 12:30:12 39° NE 12:34:20 10° ESE daylight
01 Jun - 14:09:15 10° W 14:11:36 14° SW 14:13:57 10° SSW daylight
02 Jun - 00:33:53 10° SSW 00:38:32 69° SE 00:43:11 10° NE night (unlit)
02 Jun - 12:42:31 10° NW 12:46:55 70° SW 12:51:18 10° SSE daylight
02 Jun - 23:11:07 10° SSE 23:13:48 15° SE 23:16:29 10° E night (unlit)
03 Jun - 00:50:50 10° WSW 00:55:15 42° NW 00:59:41 10° NNE night (unlit)
03 Jun - 11:18:46 10° N 11:22:16 22° NE 11:25:44 10° ESE daylight
03 Jun - 13:00:03 10° WNW 13:03:39 24° SW 13:07:15 10° S daylight
03 Jun - 23:26:15 10° SSW 23:30:35 38° SE 23:34:56 10° ENE night (unlit)
04 Jun - 01:09:05 10° W 01:12:02 16° NW 01:14:57 10° N night (unlit)
04 Jun - 11:34:37 10° NNW 11:39:01 64° NE 11:43:23 10° SE daylight
04 Jun - 23:42:39 10° SW 23:47:18 76° NW 23:51:58 10° NE night (unlit)
05 Jun - 10:12:12 10° NNE 10:14:18 13° NE 10:16:24 10° ENE daylight
05 Jun - 11:51:31 10° WNW 11:55:43 43° SW 11:59:55 10° SSE daylight
05 Jun - 22:18:59 10° S 22:22:37 22° SE 22:26:15 10° ENE night (unlit)
06 Jun - 00:00:04 10° WSW 00:04:02 28° NW 00:08:00 10° N night (unlit)
06 Jun - 10:27:01 10° NNW 10:31:05 35° NE 10:35:07 10° ESE daylight
06 Jun - 12:09:43 10° W 12:12:29 16° SW 12:15:13 10° SSW daylight
06 Jun - 22:34:47 10° SSW 22:39:20 60° SE 22:43:57 10° NE night (unlit)
